CW4498 Weather Reports


time (UTC)temp
F
wind
direction
speed
knots
gust
knots
rain 1hr
in
rain 24hr
in
rain mn
in
humidity
%
barometer
mb
20260906144520 74 117 0.0 1.7 0.00 0.00 0.00 44 1017.9
20260906143015 69 100 0.0 0.9 0.00 0.00 0.00 49 1017.9
20260906141515 67 99 0.0 0.9 0.00 0.00 0.00 50 1017.9
20260906140015 67 100 0.0 0.9 0.00 0.00 0.00 52 1018.0
20260906134513 66 187 0.0 0.0 0.00 0.00 0.00 55 1017.7
20260906133016 64 225 0.0 0.0 0.00 0.00 0.00 55 1017.7
20260906131513 63 225 0.0 0.0 0.00 0.00 0.00 56 1017.7
20260906130012 63 225 0.0 0.9 0.00 0.00 0.00 55 1017.6
20260906124511 63 268 0.0 0.9 0.00 0.00 0.00 55 1017.6
20260906123017 63 268 0.0 0.0 0.00 0.00 0.00 55 1017.7
20260906121511 63 268 0.0 1.7 0.00 0.00 0.00 55 1017.6
20260906120010 63 268 0.0 0.9 0.00 0.00 0.00 55 1017.6
20260906114526 63 166 0.0 1.7 0.00 0.00 0.00 57 1017.5
20260906113008 63 272 0.0 0.0 0.00 0.00 0.00 55 1017.3
20260906111517 65 272 0.0 0.0 0.00 0.00 0.00 52 1017.1
20260906110008 66 272 0.0 0.9 0.00 0.00 0.00 51 1017.0
20260906104510 65 272 0.0 0.9 0.00 0.00 0.00 53 1017.0
20260906103006 64 267 0.9 1.7 0.00 0.00 0.00 56 1017.1
20260906101505 64 259 0.0 1.7 0.00 0.00 0.00 59 1017.5
20260906100005 65 156 0.0 1.7 0.00 0.00 0.00 55 1017.6
20260906094504 66 138 0.0 0.0 0.00 0.00 0.00 54 1017.6
20260906093004 67 138 0.0 0.9 0.00 0.00 0.00 52 1017.5
20260906091507 68 241 0.0 1.7 0.00 0.00 0.00 50 1017.3
20260906090002 69 16 0.0 2.6 0.00 0.00 0.00 51 1017.3
20260906084559 68 277 1.7 5.2 0.00 0.00 0.00 51 1017.3
20260906083055 66 283 0.0 3.5 0.00 0.00 0.00 56 1017.3
20260906081556 66 272 0.0 3.5 0.00 0.00 0.00 59 1017.6
20260906080050 64 286 0.0 0.9 0.00 0.00 0.00 64 1017.6
20260906074551 64 303 0.0 0.0 0.00 0.00 0.00 68 1017.7
20260906073048 65 302 0.0 1.7 0.00 0.00 0.00 67 1017.6
20260906071546 64 336 0.0 2.6 0.00 0.00 0.00 69 1017.7
20260906070045 63 298 0.0 0.9 0.00 0.00 0.00 70 1017.9
20260906064544 64 272 0.0 0.9 0.00 0.00 0.00 69 1017.9
20260906063044 64 271 0.0 0.9 0.00 0.00 0.00 68 1018.1
20260906061542 64 272 0.0 0.0 0.00 0.00 0.00 68 1017.9
20260906060056 65 271 0.0 0.0 0.00 0.00 0.00 67 1017.7
20260906054538 65 272 0.0 1.7 0.00 0.00 0.00 66 1017.6
20260906053039 65 272 0.0 0.0 0.00 0.00 0.00 67 1017.7
20260906051537 65 272 0.0 0.0 0.00 0.00 0.00 65 1017.7
20260906050038 66 272 0.0 0.0 0.00 0.00 0.00 64 1017.8
20260906044536 67 272 0.0 0.9 0.00 0.00 0.00 64 1018.0
20260906043040 67 271 0.0 0.0 0.00 0.00 0.00 64 1018.1
20260906041537 68 271 0.0 0.0 0.00 0.00 0.00 63 1018.2
20260906040038 68 272 0.0 0.0 0.00 0.00 0.00 61 1018.1
20260906034539 69 272 0.0 0.0 0.00 0.00 0.00 60 1018.3
20260906033036 70 272 0.0 0.9 0.00 0.00 0.00 58 1018.3
20260906031603 70 276 0.0 1.7 0.00 0.00 0.00 56 1018.1
20260906030032 70 117 0.0 3.5 0.00 0.00 0.00 51 1017.9
20260906024538 70 269 0.9 2.6 0.00 0.00 0.00 43 1017.8
20260906023038 72 132 0.0 0.9 0.00 0.00 0.00 37 1017.3
20260906021531 73 272 0.9 1.7 0.00 0.00 0.00 36 1016.6
20260906020037 73 272 0.0 1.7 0.00 0.00 0.00 36 1016.5
20260906014531 73 272 0.0 1.7 0.00 0.00 0.00 36 1016.5
20260906013030 73 283 0.0 0.0 0.00 0.00 0.00 37 1016.5
20260906011529 75 272 0.0 0.0 0.00 0.00 0.00 35 1016.5
20260906010030 76 272 0.0 0.0 0.00 0.00 0.00 33 1016.7
20260906004530 78 272 0.0 0.9 0.00 0.03 0.00 32 1016.7
20260906003028 78 272 0.0 1.7 0.00 0.03 0.00 31 1016.6
20260906001538 80 272 0.0 0.9 0.00 0.03 0.00 29 1016.6
20260906000028 82 272 0.0 0.0 0.00 0.03 0.00 28 1016.6
20260905234527 82 272 0.0 1.7 0.00 0.03 0.00 28 1016.6
20260905233026 80 325 0.0 0.9 0.00 0.03 0.00 30 1016.6
20260905231533 83 332 0.0 1.7 0.00 0.03 0.00 28 1016.6
20260905230026 83 275 0.0 1.7 0.00 0.03 0.00 29 1016.6
20260905224525 80 276 0.0 2.6 0.00 0.03 0.00 33 1016.7
20260905223025 79 279 0.0 2.6 0.00 0.03 0.00 32 1016.9
20260905221524 79 336 0.0 2.6 0.00 0.03 0.00 33 1016.7
20260905220024 78 325 0.9 2.6 0.00 0.03 0.00 32 1017.0
20260905214523 78 276 0.0 3.5 0.00 0.03 0.00 33 1017.0
20260905213024 78 253 0.0 4.3 0.00 0.03 0.00 32 1017.1
20260905211522 79 126 1.7 4.3 0.00 0.03 0.00 32 1017.2
20260905210022 80 103 4.3 11.3 0.00 0.03 0.00 30 1017.1
20260905204525 83 103 0.9 2.6 0.00 0.03 0.00 27 1017.1
20260905203022 86 126 0.9 4.3 0.00 0.03 0.00 25 1017.0
20260905201522 86 126 1.7 7.0 0.00 0.03 0.00 24 1017.0
20260905200021 85 118 0.0 6.1 0.00 0.03 0.00 25 1017.0
20260905194520 87 126 3.5 7.0 0.00 0.03 0.00 23 1017.0
20260905193019 89 128 0.0 2.6 0.00 0.03 0.00 23 1017.1
20260905191518 88 111 0.0 1.7 0.00 0.03 0.00 25 1017.1
20260905190027 86 90 0.0 2.6 0.00 0.03 0.00 25 1017.2
20260905184517 86 11 0.0 3.5 0.00 0.03 0.00 25 1017.3
20260905183018 89 139 0.9 3.5 0.00 0.03 0.00 24 1017.5
20260905181516 87 88 0.0 2.6 0.00 0.03 0.00 24 1017.7
20260905180018 88 121 0.0 7.8 0.00 0.03 0.00 25 1017.7
20260905174514 88 150 0.9 4.3 0.00 0.03 0.00 24 1017.8
20260905173013 88 122 0.0 2.6 0.00 0.03 0.00 25 1017.8
20260905171511 86 114 1.7 7.0 0.00 0.03 0.00 26 1017.8
20260905170010 86 122 0.9 6.1 0.00 0.03 0.00 27 1017.8
20260905164507 85 129 1.7 5.2 0.00 0.03 0.00 27 1017.8
20260905163005 85 137 0.9 2.6 0.00 0.03 0.00 28 1017.9
20260905161502 84 132 0.9 5.2 0.00 0.03 0.00 29 1017.9
20260905154603 82 130 0.9 3.5 0.00 0.03 0.00 31 1017.8
20260905153054 81 135 0.0 3.5 0.00 0.03 0.00 33 1017.7
20260905151550 79 101 0.0 1.7 0.00 0.03 0.00 35 1017.7
20260905150045 76 105 0.0 0.9 0.00 0.03 0.00 41 1017.8